DK0GS-10 Weather Reports


Display with metric or nautical units.
time (UTC)temp
F
wind
direction
speed
MPH
gust
MPH
rain 1hr
in
rain 24hr
in
rain mn
in
humidity
%
barometer
mb
20260507112522 45 0.0 3.0 0.00 0.39 0.32 96 1013.4
20260507111522 45 0.0 5.0 0.00 0.39 0.32 96 1013.4
20260507110547 45 0.0 4.0 0.00 0.39 0.32 96 1013.3
20260507105522 45 90 1.0 6.0 0.00 0.39 0.32 96 1013.3
20260507104522 45 0.0 4.0 0.00 0.39 0.32 96 1013.2
20260507103522 45 0.0 2.0 0.00 0.39 0.32 96 1013.0
20260507102727 45 90 1.0 5.0 0.00 0.39 0.32 96 1012.9
20260507101547 45 90 1.0 3.0 0.00 0.39 0.32 96 1012.9
20260507100536 45 0.0 3.0 0.00 0.39 0.32 96 1012.7
20260507095522 45 90 1.0 3.0 0.00 0.39 0.32 96 1012.5
20260507094547 46 90 1.0 3.0 0.00 0.39 0.32 96 1012.4
20260507093522 46 0.0 2.0 0.00 0.39 0.32 96 1012.3
20260507092522 46 90 1.0 6.0 0.00 0.39 0.32 96 1012.2
20260507091522 46 0.0 3.0 0.00 0.39 0.32 97 1012.1
20260507090536 46 0.0 4.0 0.00 0.39 0.32 97 1011.9
20260507085522 46 0.0 2.0 0.00 0.39 0.32 97 1011.8
20260507084522 46 0.0 3.0 0.00 0.39 0.32 97 1011.7
20260507083522 46 0.0 2.0 0.00 0.39 0.32 97 1011.6
20260507082536 45 0.0 3.0 0.00 0.39 0.32 97 1011.6
20260507081547 45 0.0 2.0 0.00 0.39 0.32 97 1011.4
20260507080521 45 90 1.0 4.0 0.00 0.39 0.32 97 1011.3
20260507075522 45 0.0 3.0 0.00 0.40 0.32 97 1011.1
20260507074521 45 0.0 3.0 0.00 0.41 0.32 97 1011.1
20260507073522 45 90 1.0 4.0 0.00 0.43 0.32 97 1010.8
20260507072601 45 0.0 3.0 0.00 0.44 0.32 96 1010.7
20260507071547 45 90 1.0 6.0 0.00 0.44 0.32 96 1010.7
20260507070522 45 90 1.0 4.0 0.00 0.45 0.32 96 1010.7
20260507065522 45 90 1.0 4.0 0.00 0.46 0.32 96 1010.5
20260507064535 45 90 1.0 4.0 0.00 0.46 0.32 96 1010.4
20260507063535 46 0.0 3.0 0.00 0.47 0.32 96 1010.3
20260507062522 46 90 1.0 3.0 0.00 0.47 0.32 96 1010.1
20260507061536 46 90 1.0 5.0 0.00 0.47 0.32 97 1009.9
20260507060521 46 0.0 1.0 0.00 0.47 0.32 97 1009.8
20260507055612 46 0.0 1.0 0.00 0.48 0.32 97 1009.6
20260507054521 46 90 1.0 4.0 0.01 0.48 0.32 97 1009.5
20260507053600 46 0.0 3.0 0.01 0.48 0.32 97 1009.5
20260507052522 45 0.0 2.0 0.01 0.49 0.32 97 1009.4
20260507051535 45 0.0 6.0 0.01 0.49 0.32 97 1009.3
20260507050702 45 90 2.0 8.0 0.01 0.49 0.32 96 1009.1
20260507045521 45 90 1.0 6.0 0.01 0.50 0.32 96 1009.0
20260507044521 45 90 1.0 4.0 0.00 0.51 0.31 96 1008.9
20260507043536 46 90 2.0 6.0 0.00 0.51 0.31 96 1008.9
20260507042521 46 180 2.0 9.0 0.00 0.52 0.31 96 1008.8
20260507041521 46 180 1.0 5.0 0.00 0.53 0.31 96 1008.7
20260507040535 46 180 1.0 5.0 0.00 0.54 0.31 96 1008.5
20260507035547 46 180 2.0 6.0 0.01 0.54 0.31 96 1008.4
20260507034521 47 180 1.0 5.0 0.02 0.55 0.31 96 1008.4
20260507033521 47 180 1.0 3.0 0.03 0.57 0.31 96 1008.3
20260507032600 47 180 1.0 5.0 0.05 0.60 0.31 96 1008.2
20260507031535 47 0.0 3.0 0.07 0.62 0.31 96 1008.2
20260507030546 47 0.0 3.0 0.09 0.63 0.31 96 1008.1
20260507025521 47 180 1.0 4.0 0.08 0.64 0.30 96 1007.9
20260507024521 48 180 1.0 4.0 0.07 0.64 0.29 96 1007.9
20260507023521 48 0.0 3.0 0.07 0.65 0.28 96 1007.9
20260507022521 48 180 1.0 4.0 0.06 0.65 0.26 96 1007.9
20260507021536 48 0.0 1.0 0.05 0.65 0.24 97 1007.8
20260507020535 48 0.0 1.0 0.03 0.65 0.22 96 1007.7
20260507015521 48 0.0 2.0 0.04 0.68 0.22 96 1007.6
20260507014546 48 0.0 1.0 0.05 0.71 0.22 96 1007.5
20260507013521 48 0.0 1.0 0.05 0.72 0.21 96 1007.5
20260507012521 48 0.0 1.0 0.05 0.73 0.20 96 1007.4
20260507011600 48 0.0 1.0 0.05 0.75 0.19 96 1007.3
20260507010521 48 0.0 1.0 0.05 0.79 0.19 96 1007.2
20260507005521 48 0.0 1.0 0.04 0.80 0.18 96 1007.2
20260507004535 48 0.0 2.0 0.04 0.81 0.17 96 1007.1
20260507003522 48 0.0 0.0 0.05 0.82 0.16 96 1007.1
20260507002521 48 0.0 0.0 0.05 0.85 0.15 96 1007.0
20260507001521 48 0.0 0.0 0.05 0.86 0.14 96 1007.0
20260507000521 49 0.0 0.0 0.07 0.87 0.14 96 1006.9
20260506235611 49 0.0 1.0 0.08 0.89 0.14 96 1007.0
20260506234521 49 0.0 1.0 0.07 0.90 0.13 96 1006.9
20260506233521 49 0.0 1.0 0.07 0.89 0.11 96 1006.9
20260506232600 49 0.0 0.0 0.07 0.90 0.10 96 1006.8
20260506231546 49 0.0 0.0 0.09 0.90 0.09 96 1006.7
20260506230521 49 0.0 0.0 0.07 0.90 0.07 96 1006.7
20260506225521 49 0.0 0.0 0.06 0.90 0.06 96 1006.6
20260506224535 49 0.0 0.0 0.06 0.91 0.06 96 1006.6
20260506223521 49 0.0 0.0 0.04 0.90 0.04 96 1006.6
20260506222535 49 0.0 0.0 0.03 0.90 0.03 96 1006.5
20260506221521 49 0.0 0.0 0.01 0.89 0.00 96 1006.4
20260506220521 49 0.0 0.0 0.02 0.90 0.00 96 1006.5
20260506215535 49 0.0 0.0 0.02 0.92 0.91 96 1006.4
20260506214521 48 0.0 0.0 0.02 0.93 0.91 96 1006.4
20260506213523 48 0.0 0.0 0.02 0.94 0.91 96 1006.3
20260506212523 48 0.0 0.0 0.02 0.95 0.91 96 1006.3
20260506211523 48 0.0 0.0 0.01 0.95 0.90 96 1006.3
20260506210523 48 0.0 0.0 0.01 0.95 0.89 96 1006.2
20260506205522 49 0.0 0.0 0.01 0.96 0.89 96 1006.3
20260506204523 49 0.0 0.0 0.01 0.96 0.89 96 1006.3
20260506203537 49 0.0 0.0 0.01 0.97 0.89 96 1006.3
20260506202523 49 0.0 0.0 0.01 0.97 0.89 95 1006.1
20260506201521 49 0.0 3.0 0.01 0.97 0.89 95 1006.1
20260506200523 49 0.0 1.0 0.01 0.97 0.88 95 1006.1
20260506195523 50 0.0 1.0 0.01 0.97 0.88 95 1005.9
20260506194523 50 0.0 2.0 0.02 0.97 0.88 95 1005.9
20260506193523 50 0.0 0.0 0.04 0.97 0.88 95 1005.7
20260506192524 50 0.0 4.0 0.04 0.97 0.88 95 1005.7
20260506191522 51 0.0 1.0 0.04 0.97 0.88 95 1005.6
20260506190602 51 0.0 0.0 0.03 0.96 0.87 95 1005.6
20260506185522 51 0.0 1.0 0.03 0.96 0.87 95 1005.4
20260506184522 51 0.0 0.0 0.02 0.95 0.86 94 1005.3
20260506183522 52 0.0 1.0 0.00 0.93 0.84 95 1005.1
20260506182522 52 0.0 0.0 0.00 0.93 0.84 94 1005.0
20260506181522 52 0.0 1.0 0.00 0.93 0.84 94 1004.8
20260506180536 52 0.0 2.0 0.00 0.93 0.84 94 1004.8
20260506175522 52 0.0 1.0 0.00 0.93 0.84 94 1004.7
20260506174522 53 0.0 3.0 0.00 0.93 0.84 94 1004.8
20260506173522 53 0.0 1.0 0.00 0.93 0.84 94 1004.7
20260506172522 53 0.0 0.0 0.00 0.93 0.84 93 1004.8
20260506171601 53 0.0 2.0 0.00 0.93 0.84 93 1004.7
20260506170522 53 0.0 1.0 0.00 0.93 0.84 93 1004.6
20260506165522 54 0.0 0.0 0.00 0.93 0.84 92 1004.6
20260506164522 54 0.0 0.0 0.00 0.93 0.84 92 1004.6
20260506163522 54 0.0 0.0 0.00 0.93 0.84 92 1004.5
20260506162536 54 0.0 1.0 0.00 0.93 0.84 92 1004.4
20260506161522 55 0.0 2.0 0.00 0.93 0.84 92 1004.2
20260506160522 55 0.0 3.0 0.00 0.93 0.84 91 1004.3
20260506155522 55 0.0 2.0 0.00 0.93 0.84 91 1004.4
20260506154522 55 0.0 4.0 0.00 0.93 0.84 91 1004.4
20260506153523 55 0.0 4.0 0.00 0.93 0.84 90 1004.4
20260506152602 55 0.0 2.0 0.00 0.93 0.84 91 1004.4
20260506151601 55 180 1.0 3.0 0.00 0.93 0.84 91 1004.4
20260506150522 55 180 1.0 5.0 0.00 0.93 0.84 91 1004.3
20260506145522 55 0.0 2.0 0.00 0.93 0.84 92 1004.4
20260506144522 54 0.0 3.0 0.00 0.93 0.84 92 1004.3
20260506143522 54 0.0 3.0 0.00 0.93 0.84 92 1004.4
20260506142522 54 0.0 2.0 0.00 0.93 0.84 92 1004.4
20260506141522 54 0.0 2.0 0.00 0.93 0.84 93 1004.3
20260506140522 54 0.0 3.0 0.00 0.93 0.84 93 1004.3
20260506135522 54 0.0 1.0 0.00 0.93 0.84 94 1004.3
20260506134547 54 180 1.0 5.0 0.00 0.93 0.84 93 1004.3
20260506133601 54 0.0 2.0 0.00 0.93 0.84 94 1004.4
20260506132547 54 0.0 3.0 0.00 0.93 0.84 94 1004.3
20260506131522 54 0.0 1.0 0.00 0.93 0.84 95 1004.3
20260506130522 54 0.0 1.0 0.00 0.93 0.84 95 1004.3
20260506125547 54 0.0 2.0 0.00 0.93 0.84 95 1004.3
20260506124522 53 0.0 2.0 0.00 0.93 0.84 96 1004.3
20260506123522 53 0.0 2.0 0.00 0.93 0.84 96 1004.3
20260506122601 53 0.0 3.0 0.00 0.93 0.84 96 1004.3
20260506121601 53 0.0 2.0 0.00 0.93 0.84 96 1004.2
20260506120522 53 0.0 1.0 0.00 0.93 0.84 96 1004.1
20260506115522 53 0.0 2.0 0.00 0.93 0.84 96 1004.0
20260506114522 53 0.0 3.0 0.00 0.93 0.84 96 1003.9
20260506113522 53 0.0 2.0 0.00 0.93 0.84 97 1003.8